DAL1915 KMCO-KATL

Flight info

Callsign DAL1915
Flight time 1h 0m
Altitude 36000
Route JEEMY4 PAINN DCT SHRKS DCT LAIRI DCT LARZZ JJEDI4
Aircraft A20N/M-SDE2E3FGHIRWXY/LB1

Departure

Time 2026-05-04 00:41
Airport Orlando International Airport (KMCO)

Arrival

Time 2026-05-04 01:41
Airport Hartsfield Jackson Atlanta International Airport (KATL)
Time Latitude Longitude Altitude Speed Heading
2026-05-04 00:21 28.43591 -81.31575 101 ft 0 kts 114°
2026-05-04 00:28 28.43591 -81.31577 102 ft 2 kts 114°
2026-05-04 00:28 28.43598 -81.31594 102 ft 2 kts 116°
2026-05-04 00:28 28.43605 -81.31610 102 ft 2 kts 114°
2026-05-04 00:29 28.43606 -81.31628 100 ft 2 kts 58°
2026-05-04 00:29 28.43595 -81.31641 100 ft 2 kts 23°
2026-05-04 00:29 28.43592 -81.31643 100 ft 0 kts 15°
2026-05-04 00:30 28.43617 -81.31636 101 ft 6 kts 14°
2026-05-04 00:30 28.43668 -81.31623 102 ft 9 kts
2026-05-04 00:31 28.43733 -81.31621 102 ft 10 kts 340°
2026-05-04 00:31 28.43791 -81.31660 104 ft 11 kts 327°
2026-05-04 00:31 28.43846 -81.31737 105 ft 15 kts 274°
2026-05-04 00:31 28.43819 -81.31843 106 ft 14 kts 207°
2026-05-04 00:32 28.43710 -81.31846 105 ft 17 kts 179°
2026-05-04 00:32 28.43625 -81.31844 105 ft 1 kts 180°
2026-05-04 00:32 28.43591 -81.31845 105 ft 11 kts 181°
2026-05-04 00:32 28.43472 -81.31843 103 ft 22 kts 179°
2026-05-04 00:33 28.43347 -81.31842 101 ft 19 kts 179°
2026-05-04 00:33 28.43229 -81.31841 101 ft 0 kts 186°
2026-05-04 00:33 28.43218 -81.31847 101 ft 8 kts 210°
2026-05-04 00:34 28.43174 -81.31913 100 ft 13 kts 238°
2026-05-04 00:34 28.43104 -81.31992 101 ft 16 kts 195°
2026-05-04 00:34 28.42988 -81.31993 102 ft 18 kts 179°
2026-05-04 00:34 28.42857 -81.31992 103 ft 19 kts 179°
2026-05-04 00:35 28.42721 -81.31991 107 ft 20 kts 179°
2026-05-04 00:35 28.42580 -81.31989 109 ft 21 kts 180°
2026-05-04 00:35 28.42425 -81.31988 108 ft 23 kts 179°
2026-05-04 00:35 28.42257 -81.31986 109 ft 25 kts 179°
2026-05-04 00:36 28.42073 -81.31983 105 ft 28 kts 178°
2026-05-04 00:36 28.41903 -81.31981 102 ft 21 kts 179°
2026-05-04 00:36 28.41767 -81.31980 101 ft 13 kts 179°
2026-05-04 00:36 28.41671 -81.31979 101 ft 16 kts 179°
2026-05-04 00:37 28.41602 -81.31978 99 ft 0 kts 179°
2026-05-04 00:37 28.41598 -81.31978 99 ft 0 kts 179°
2026-05-04 00:38 28.41581 -81.31979 99 ft 7 kts 189°
2026-05-04 00:38 28.41542 -81.32034 100 ft 11 kts 262°
2026-05-04 00:38 28.41544 -81.32083 101 ft 0 kts 271°
2026-05-04 00:39 28.41544 -81.32108 101 ft 6 kts 271°
2026-05-04 00:39 28.41550 -81.32177 101 ft 12 kts 286°
2026-05-04 00:39 28.41610 -81.32197 101 ft 0 kts
2026-05-04 00:40 28.41630 -81.32196 101 ft 19 kts
2026-05-04 00:40 28.42062 -81.32200 107 ft 102 kts 359°
2026-05-04 00:40 28.43004 -81.32212 124 ft 164 kts
2026-05-04 00:40 28.44216 -81.32197 626 ft 184 kts
2026-05-04 00:41 28.45058 -81.31996 1137 ft 188 kts 22°
2026-05-04 00:41 28.46553 -81.31058 2325 ft 200 kts 39°
2026-05-04 00:41 28.47696 -81.29896 2541 ft 238 kts 48°
2026-05-04 00:41 28.48914 -81.28488 3073 ft 261 kts 44°
2026-05-04 00:42 28.50315 -81.27066 3743 ft 276 kts 41°
2026-05-04 00:42 28.51907 -81.25902 4917 ft 273 kts 25°
2026-05-04 00:42 28.53109 -81.25444 5521 ft 276 kts 11°
2026-05-04 00:42 28.55016 -81.25155 6364 ft 278 kts
2026-05-04 00:43 28.56954 -81.25169 6748 ft 279 kts 355°
2026-05-04 00:43 28.58868 -81.25550 6929 ft 279 kts 342°
2026-05-04 00:43 28.60672 -81.26355 7011 ft 277 kts 333°
2026-05-04 00:43 28.62434 -81.27270 7015 ft 277 kts 335°
2026-05-04 00:44 28.64142 -81.28248 7058 ft 277 kts 326°
2026-05-04 00:44 28.65704 -81.29537 7460 ft 277 kts 320°
2026-05-04 00:44 28.67240 -81.30865 8393 ft 276 kts 321°
2026-05-04 00:44 28.68774 -81.32173 9459 ft 274 kts 320°
2026-05-04 00:45 28.70312 -81.33483 10346 ft 279 kts 319°
2026-05-04 00:45 28.71929 -81.34870 10701 ft 302 kts 319°
2026-05-04 00:45 28.73761 -81.36193 10971 ft 328 kts 329°
2026-05-04 00:45 28.75946 -81.37161 11605 ft 342 kts 340°
2026-05-04 00:46 28.78313 -81.37712 12379 ft 350 kts 345°
2026-05-04 00:46 28.80740 -81.38208 13116 ft 356 kts 344°
2026-05-04 00:46 28.83163 -81.38716 13849 ft 362 kts 344°
2026-05-04 00:46 28.85661 -81.39244 14528 ft 366 kts 343°
2026-05-04 00:47 28.88187 -81.39778 15201 ft 371 kts 343°
2026-05-04 00:47 28.90749 -81.40319 15857 ft 376 kts 343°
2026-05-04 00:47 28.93338 -81.40866 16531 ft 380 kts 342°
2026-05-04 00:47 28.95974 -81.41362 17150 ft 389 kts 347°
2026-05-04 00:48 28.98692 -81.41655 17805 ft 394 kts 347°
2026-05-04 00:48 29.01446 -81.41955 18398 ft 400 kts 347°
2026-05-04 00:48 29.04233 -81.42263 18951 ft 403 kts 347°
2026-05-04 00:48 29.07001 -81.42568 19540 ft 405 kts 347°
2026-05-04 00:49 29.09828 -81.42882 20104 ft 408 kts 347°
2026-05-04 00:49 29.12673 -81.43178 20672 ft 412 kts 347°
2026-05-04 00:49 29.15554 -81.43448 21240 ft 415 kts 348°
2026-05-04 00:49 29.18417 -81.43711 21792 ft 418 kts 348°
2026-05-04 00:50 29.21332 -81.43980 22373 ft 421 kts 347°
2026-05-04 00:50 29.24276 -81.44256 22920 ft 424 kts 347°
2026-05-04 00:50 29.27210 -81.44534 23500 ft 428 kts 347°
2026-05-04 00:50 29.30200 -81.44820 23936 ft 432 kts 347°
2026-05-04 00:51 29.33213 -81.45107 24421 ft 434 kts 347°
2026-05-04 00:51 29.36197 -81.45391 24873 ft 437 kts 347°
2026-05-04 00:51 29.39237 -81.45681 25309 ft 440 kts 347°
2026-05-04 00:51 29.42312 -81.45975 25751 ft 442 kts 347°
2026-05-04 00:52 29.45400 -81.46271 26185 ft 445 kts 347°
2026-05-04 00:52 29.48458 -81.46563 26594 ft 448 kts 347°
2026-05-04 00:52 29.51584 -81.46862 27003 ft 450 kts 347°
2026-05-04 00:52 29.54715 -81.47162 27407 ft 453 kts 347°
2026-05-04 00:53 29.57871 -81.47465 27802 ft 457 kts 347°
2026-05-04 00:53 29.61052 -81.47764 28173 ft 459 kts 347°
2026-05-04 00:53 29.64251 -81.48052 28554 ft 462 kts 347°
2026-05-04 00:53 29.67459 -81.48340 28905 ft 464 kts 347°
2026-05-04 00:54 29.70657 -81.48628 29250 ft 466 kts 347°
2026-05-04 00:54 29.73909 -81.48923 29590 ft 469 kts 347°
2026-05-04 00:54 29.77171 -81.49220 29927 ft 471 kts 347°
2026-05-04 00:54 29.80456 -81.49519 30254 ft 474 kts 346°
2026-05-04 00:55 29.83720 -81.49816 30536 ft 476 kts 346°
2026-05-04 00:55 29.87024 -81.50144 30849 ft 475 kts 343°
2026-05-04 00:55 29.90265 -81.50810 31135 ft 468 kts 336°
2026-05-04 00:55 29.93369 -81.51850 31473 ft 463 kts 333°
2026-05-04 00:56 29.96444 -81.52956 31867 ft 462 kts 333°
2026-05-04 00:56 29.99514 -81.54047 32272 ft 461 kts 333°
2026-05-04 00:56 30.02578 -81.55136 32663 ft 459 kts 332°
2026-05-04 00:56 30.05594 -81.56210 33034 ft 458 kts 332°
2026-05-04 00:57 30.08644 -81.57300 33420 ft 457 kts 332°
2026-05-04 00:57 30.11684 -81.58387 33797 ft 456 kts 332°
2026-05-04 00:57 30.14715 -81.59475 34186 ft 455 kts 332°
2026-05-04 00:57 30.17735 -81.60560 34461 ft 455 kts 332°
2026-05-04 00:58 30.20760 -81.61646 34723 ft 454 kts 332°
2026-05-04 00:58 30.23745 -81.62717 34978 ft 454 kts 331°
2026-05-04 00:58 30.26801 -81.63815 35230 ft 454 kts 331°
2026-05-04 00:58 30.29778 -81.64885 35478 ft 453 kts 331°
2026-05-04 00:59 30.32806 -81.65975 35770 ft 452 kts 331°
2026-05-04 00:59 30.35818 -81.67059 36023 ft 451 kts 331°
2026-05-04 00:59 30.38812 -81.68137 36111 ft 450 kts 330°
2026-05-04 01:00 30.44759 -81.70283 36118 ft 449 kts 330°
2026-05-04 01:00 30.50737 -81.72441 36115 ft 449 kts 330°
2026-05-04 01:01 30.56689 -81.74594 36120 ft 449 kts 330°
2026-05-04 01:01 30.62597 -81.76889 36122 ft 441 kts 325°
2026-05-04 01:02 30.68035 -81.79946 36125 ft 434 kts 321°
2026-05-04 01:02 30.73479 -81.83091 36153 ft 436 kts 322°
2026-05-04 01:03 30.78901 -81.86222 36162 ft 436 kts 322°
2026-05-04 01:03 30.84355 -81.89381 36135 ft 437 kts 322°
2026-05-04 01:04 30.89768 -81.92522 36136 ft 437 kts 322°
2026-05-04 01:04 30.95212 -81.95685 36154 ft 436 kts 322°
2026-05-04 01:05 31.00652 -81.98850 36171 ft 437 kts 322°
2026-05-04 01:05 31.06060 -82.02003 36125 ft 437 kts 322°
2026-05-04 01:06 31.11506 -82.05178 36122 ft 436 kts 322°
2026-05-04 01:06 31.16942 -82.08353 36115 ft 436 kts 322°
2026-05-04 01:07 31.22336 -82.11507 36125 ft 436 kts 322°
2026-05-04 01:07 31.27766 -82.14686 36123 ft 435 kts 322°
2026-05-04 01:08 31.33194 -82.17873 36103 ft 436 kts 322°
2026-05-04 01:08 31.38594 -82.21042 36104 ft 437 kts 322°
2026-05-04 01:09 31.44036 -82.24240 36103 ft 437 kts 322°
2026-05-04 01:09 31.49489 -82.27449 36103 ft 437 kts 322°
2026-05-04 01:10 31.54899 -82.30637 36100 ft 438 kts 322°
2026-05-04 01:10 31.60369 -82.33867 36093 ft 439 kts 323°
2026-05-04 01:11 31.65810 -82.37082 36089 ft 440 kts 323°
2026-05-04 01:11 31.71302 -82.40331 36096 ft 441 kts 323°
2026-05-04 01:12 31.76788 -82.43582 36090 ft 442 kts 323°
2026-05-04 01:12 31.82241 -82.46816 36095 ft 442 kts 323°
2026-05-04 01:13 31.87748 -82.50089 36123 ft 443 kts 323°
2026-05-04 01:13 31.93266 -82.53380 36127 ft 442 kts 322°
2026-05-04 01:14 31.98309 -82.57261 36124 ft 429 kts 312°
2026-05-04 01:14 32.02814 -82.61815 36121 ft 426 kts 310°
2026-05-04 01:15 32.07315 -82.66387 36118 ft 426 kts 310°
2026-05-04 01:15 32.11788 -82.70945 36122 ft 426 kts 310°
2026-05-04 01:16 32.16277 -82.75536 36127 ft 427 kts 310°
2026-05-04 01:16 32.20747 -82.80113 36113 ft 426 kts 310°
2026-05-04 01:17 32.25215 -82.84692 36111 ft 425 kts 310°
2026-05-04 01:17 32.29647 -82.89243 35745 ft 425 kts 310°
2026-05-04 01:17 32.31882 -82.91543 35243 ft 427 kts 310°
2026-05-04 01:18 32.34125 -82.93851 34726 ft 428 kts 310°
2026-05-04 01:18 32.36374 -82.96164 34202 ft 429 kts 310°
2026-05-04 01:18 32.38626 -82.98483 33628 ft 430 kts 311°
2026-05-04 01:18 32.40886 -83.00813 32967 ft 432 kts 311°
2026-05-04 01:19 32.43165 -83.03166 32032 ft 438 kts 312°
2026-05-04 01:19 32.45478 -83.05559 31000 ft 445 kts 313°
2026-05-04 01:19 32.47820 -83.07979 30054 ft 449 kts 313°
2026-05-04 01:19 32.50180 -83.10416 29024 ft 451 kts 313°
2026-05-04 01:20 32.52516 -83.12828 28009 ft 452 kts 314°
2026-05-04 01:20 32.54892 -83.15285 26958 ft 455 kts 314°
2026-05-04 01:20 32.57278 -83.17759 25920 ft 457 kts 315°
2026-05-04 01:20 32.59676 -83.20247 24850 ft 459 kts 315°
2026-05-04 01:21 32.62086 -83.22745 23849 ft 461 kts 316°
2026-05-04 01:21 32.64488 -83.25235 22951 ft 456 kts 316°
2026-05-04 01:21 32.66861 -83.27694 22119 ft 450 kts 316°
2026-05-04 01:21 32.69203 -83.30124 21291 ft 444 kts 316°
2026-05-04 01:22 32.71485 -83.32495 20497 ft 439 kts 316°
2026-05-04 01:22 32.73767 -83.34869 19742 ft 434 kts 316°
2026-05-04 01:22 32.76023 -83.37216 18963 ft 429 kts 316°
2026-05-04 01:22 32.78257 -83.39542 18183 ft 425 kts 316°
2026-05-04 01:23 32.80467 -83.41845 17359 ft 420 kts 316°
2026-05-04 01:23 32.82649 -83.44121 16555 ft 415 kts 316°
2026-05-04 01:23 32.84807 -83.46373 15767 ft 411 kts 317°
2026-05-04 01:23 32.86943 -83.48603 15002 ft 407 kts 317°
2026-05-04 01:24 32.89058 -83.50812 14251 ft 402 kts 317°
2026-05-04 01:24 32.91152 -83.53001 13454 ft 399 kts 317°
2026-05-04 01:24 32.93192 -83.55135 12720 ft 393 kts 317°
2026-05-04 01:24 32.95233 -83.57273 11944 ft 389 kts 318°
2026-05-04 01:25 32.97247 -83.59382 11369 ft 381 kts 318°
2026-05-04 01:25 32.99198 -83.61425 11068 ft 366 kts 318°
2026-05-04 01:25 33.01073 -83.63390 10854 ft 351 kts 318°
2026-05-04 01:25 33.02864 -83.65267 10699 ft 335 kts 318°
2026-05-04 01:26 33.04578 -83.67064 10563 ft 321 kts 318°
2026-05-04 01:26 33.06217 -83.68783 10444 ft 307 kts 318°
2026-05-04 01:26 33.07767 -83.70410 10330 ft 294 kts 318°
2026-05-04 01:26 33.09267 -83.71985 10217 ft 282 kts 318°
2026-05-04 01:27 33.10710 -83.73502 10105 ft 273 kts 319°
2026-05-04 01:27 33.12157 -83.75025 10105 ft 280 kts 319°
2026-05-04 01:27 33.13614 -83.76558 10098 ft 278 kts 319°
2026-05-04 01:27 33.15063 -83.78084 10106 ft 278 kts 319°
2026-05-04 01:28 33.16514 -83.79612 10102 ft 279 kts 319°
2026-05-04 01:28 33.17966 -83.81143 10102 ft 278 kts 319°
2026-05-04 01:28 33.19403 -83.82696 10079 ft 279 kts 315°
2026-05-04 01:28 33.20771 -83.84337 9958 ft 279 kts 315°
2026-05-04 01:29 33.22121 -83.85945 9825 ft 277 kts 315°
2026-05-04 01:29 33.23487 -83.87570 9697 ft 277 kts 315°
2026-05-04 01:29 33.24856 -83.89198 9464 ft 279 kts 315°
2026-05-04 01:29 33.26234 -83.90837 9007 ft 280 kts 315°
2026-05-04 01:30 33.27616 -83.92484 8542 ft 281 kts 315°
2026-05-04 01:30 33.28999 -83.94133 8102 ft 281 kts 315°
2026-05-04 01:30 33.30405 -83.95811 7392 ft 291 kts 315°
2026-05-04 01:30 33.31866 -83.97557 6605 ft 303 kts 315°
2026-05-04 01:31 33.33366 -83.99351 5775 ft 314 kts 315°
2026-05-04 01:31 33.34941 -84.01212 4935 ft 323 kts 318°
2026-05-04 01:31 33.36889 -84.02559 4307 ft 325 kts 341°
2026-05-04 01:31 33.39085 -84.02921 4082 ft 314 kts 358°
2026-05-04 01:32 33.41197 -84.03174 3999 ft 296 kts 345°
2026-05-04 01:32 33.43009 -84.04128 3997 ft 276 kts 326°
2026-05-04 01:32 33.44548 -84.05381 3996 ft 259 kts 324°
2026-05-04 01:32 33.45984 -84.06575 3994 ft 243 kts 324°
2026-05-04 01:33 33.47305 -84.07692 3996 ft 228 kts 323°
2026-05-04 01:33 33.48558 -84.08765 3998 ft 217 kts 323°
2026-05-04 01:33 33.49803 -84.09840 3999 ft 221 kts 323°
2026-05-04 01:33 33.51045 -84.10914 4000 ft 220 kts 323°
2026-05-04 01:34 33.52286 -84.11988 4001 ft 220 kts 323°
2026-05-04 01:34 33.53528 -84.13063 3999 ft 220 kts 323°
2026-05-04 01:34 33.54765 -84.14133 3944 ft 220 kts 323°
2026-05-04 01:34 33.56006 -84.15207 3850 ft 219 kts 323°
2026-05-04 01:35 33.57239 -84.16276 3748 ft 219 kts 323°
2026-05-04 01:35 33.58472 -84.17344 3649 ft 216 kts 323°
2026-05-04 01:35 33.59640 -84.18354 3598 ft 203 kts 323°
2026-05-04 01:35 33.60738 -84.19304 3609 ft 186 kts 322°
2026-05-04 01:36 33.61784 -84.20211 3597 ft 188 kts 322°
2026-05-04 01:36 33.62710 -84.21282 3591 ft 185 kts 301°
2026-05-04 01:36 33.63133 -84.22716 3595 ft 184 kts 278°
2026-05-04 01:36 33.63212 -84.24246 3596 ft 184 kts 269°
2026-05-04 01:37 33.63183 -84.25740 3588 ft 168 kts 270°
2026-05-04 01:37 33.63185 -84.27061 3417 ft 152 kts 270°
2026-05-04 01:37 33.63183 -84.28298 3237 ft 150 kts 270°
2026-05-04 01:37 33.63181 -84.29526 3025 ft 148 kts 270°
2026-05-04 01:38 33.63159 -84.30757 2824 ft 147 kts 269°
2026-05-04 01:38 33.63146 -84.31982 2626 ft 147 kts 271°
2026-05-04 01:38 33.63150 -84.33210 2415 ft 147 kts 271°
2026-05-04 01:38 33.63154 -84.34437 2164 ft 147 kts 272°
2026-05-04 01:39 33.63176 -84.35649 1964 ft 145 kts 272°
2026-05-04 01:39 33.63176 -84.36858 1799 ft 146 kts 270°
2026-05-04 01:39 33.63174 -84.38084 1646 ft 149 kts 271°
2026-05-04 01:39 33.63174 -84.39303 1465 ft 140 kts 271°
2026-05-04 01:40 33.63177 -84.40446 1258 ft 133 kts 271°
2026-05-04 01:40 33.63181 -84.41523 1096 ft 126 kts 272°
2026-05-04 01:40 33.63184 -84.42536 1006 ft 113 kts 270°
2026-05-04 01:40 33.63185 -84.43280 1008 ft 67 kts 270°
2026-05-04 01:41 33.63200 -84.43547 1007 ft 28 kts 284°
2026-05-04 01:41 33.63256 -84.43693 1006 ft 0 kts 302°
2026-05-04 01:41 33.63260 -84.43702 1006 ft 7 kts 303°
2026-05-04 01:41 33.63323 -84.43734 1006 ft 15 kts 26°
2026-05-04 01:42 33.63382 -84.43618 1006 ft 16 kts 40°
2026-05-04 01:42 33.63508 -84.43606 1005 ft 22 kts
2026-05-04 01:42 33.63578 -84.43550 1005 ft 13 kts 84°
2026-05-04 01:42 33.63615 -84.43429 1005 ft 6 kts 11°
2026-05-04 01:43 33.63667 -84.43420 1005 ft 9 kts 14°
2026-05-04 01:43 33.63732 -84.43392 1006 ft 11 kts
2026-05-04 01:43 33.63820 -84.43393 1006 ft 14 kts
2026-05-04 01:43 33.63918 -84.43392 1006 ft 8 kts
2026-05-04 01:44 33.63933 -84.43391 1006 ft 5 kts 10°
2026-05-04 01:44 33.63948 -84.43378 1006 ft 0 kts 39°
2026-05-04 01:44 33.63948 -84.43377 1006 ft 0 kts 50°
2026-05-04 01:44 33.63947 -84.43372 1006 ft 1 kts 92°
2026-05-04 01:45 33.63942 -84.43337 1006 ft 1 kts 91°
2026-05-04 01:45 33.63942 -84.43327 1006 ft 0 kts 88°